sat.trackr.live / text

‹ back to catalog

STARLINK-35282

NORAD 65658 · 2025-211G

PAYLOAD ACTIVE UNKNOWN

§ Identity

Operator
Country
US
Launch date
2025-09-19
Launch site
AFWTR
Launch vehicle
Mass (kg)
RCS (m²)

Purposes: comms

External: N2YO · Heavens-Above · Gunter

§ Orbital elements

Epoch: 2026-09-20T20:35:58.600896Z

Period
93.91 min
Inclination
97.2836°
Eccentricity
0.0000809
Mean motion
15.33459925 rev/d
Perigee alt
464.9 km
Apogee alt
466.1 km
Semi-major
6,843.6 km
B*
4.1486e-4
RAAN
304.0142°
Arg perigee
99.3146°
Mean anomaly
260.8189°
Rev number
5,657

§ Raw data

STARLINK-352821 65658U 25211G   26263.85831714  .00013348  00000+0  41486-3 0  99912 65658  97.2836 304.0142 0000809  99.3146 260.8189 15.33459925 56573

JSON: /api/v1/satellites/65658 · /tle

For live sub-satellite position, see the globe view (requires WebGL).

§ Visibility from observer

Set your observer location to see the next 7 days of passes ≥ 10°. The values pass through the URL so the page stays shareable.

No JS? Fill the form by hand. The geolocation button needs JavaScript.